Kansas City, MO

4:04 AM CST on December 07, 2016 (GMT -0600)
Kansas City Downtown

Weather History for KMKC - May, 2014

Change the Weather History Date:

Wednesday, May 28, 2014

  Actual Average Record
Temperature  
Mean Temperature 78 °F -  
Max Temperature 89 °F 76 °F 91 °F (1998)
Min Temperature 66 °F 57 °F 52 °F (2005)
Cooling Degree Days 12    
Growing Degree Days 28 (Base 50)    
Moisture  
Dew Point 64 °F    
Average Humidity 64    
Maximum Humidity 90    
Minimum Humidity 38    
Precipitation  
Precipitation 0.00 in - - ()
Sea Level Pressure  
Sea Level Pressure 29.92 in    
Wind  
Wind Speed 3 mph (North)    
Max Wind Speed 10 mph    
Max Gust Speed -    
Visibility 10 miles    
Events Rain    
Averages and records for this station are not official NWS values.
T = Trace of Precipitation, MM = Missing Value Source: NWS Daily Summary

Daily Weather History Graph

Daily Weather History Graph

Search for Another Location

Airport or City:

Trip Planner

Search our weather history database for the weather conditions in past years. The results will help you decide how hot, cold, wet, or windy it might be!

Date:

Astronomy

May. 28, 2014 Rise Set
Actual Time 5:56 AM CDT 8:35 PM CDT
Civil Twilight 5:24 AM CDT 9:06 PM CDT
Nautical Twilight 4:45 AM CDT 9:46 PM CDT
Astronomical Twilight 4:02 AM CDT 10:30 PM CDT
Moon 6:02 AM CDT (5/28) 8:35 PM CDT (5/28)
Length of Visible Light 15h 42m
Length of Day
14h 39m
Waning Crescent, 0% of the Moon is Illuminated
May 28
Waning Crescent
May 28
New
Jun 5
First Quarter
Jun 12
Full
Jun 19
Last Quarter

Hourly Weather History & Observations

Time (CDT) Temp. Heat Index Dew Point Humidity Pressure Visibility Wind Dir Wind Speed Gust Speed Precip Events Conditions
12:54 AM 72.0 °F - 66.0 °F 81% 29.93 in 10.0 mi Calm Calm - N/A   Clear
1:54 AM 70.0 °F - 64.9 °F 84% 29.92 in 10.0 mi Calm Calm - N/A   Clear
2:54 AM 68.0 °F - 64.9 °F 90% 29.92 in 7.0 mi Calm Calm - N/A   Clear
3:54 AM 69.1 °F - 64.9 °F 87% 29.92 in 9.0 mi Calm Calm - N/A   Clear
4:54 AM 68.0 °F - 64.9 °F 90% 29.91 in 9.0 mi Calm Calm - N/A   Clear
5:54 AM 66.0 °F - 63.0 °F 90% 29.91 in 7.0 mi South 3.5 mph - N/A   Clear
6:54 AM 68.0 °F - 64.9 °F 90% 29.93 in 7.0 mi Calm Calm - N/A   Clear
7:54 AM 71.6 °F - 64.4 °F 78% 29.96 in 8.0 mi WNW 3.5 mph - N/A   Clear
8:54 AM 77.0 °F - 66.0 °F 69% 29.95 in 10.0 mi North 3.5 mph - N/A   Clear
9:54 AM 80.1 °F 82.1 °F 66.0 °F 62% 29.95 in 10.0 mi NW 5.8 mph - N/A   Clear
10:54 AM 84.0 °F 86.3 °F 66.0 °F 55% 29.94 in 10.0 mi NNE 6.9 mph - N/A   Clear
11:54 AM 87.1 °F 88.9 °F 64.9 °F 48% 29.94 in 10.0 mi NNE 6.9 mph - N/A   Clear
12:54 PM 84.2 °F 85.0 °F 62.6 °F 48% 29.96 in 10.0 mi Calm Calm - N/A   Clear
1:54 PM 89.1 °F 90.0 °F 63.0 °F 42% 29.92 in 10.0 mi North 8.1 mph - N/A   Partly Cloudy
2:54 PM 86.0 °F 85.7 °F 60.1 °F 41% 29.91 in 10.0 mi Variable 4.6 mph - N/A   Clear
3:54 PM 88.0 °F 87.6 °F 60.1 °F 39% 29.89 in 10.0 mi North 8.1 mph - N/A   Partly Cloudy
4:54 PM 89.6 °F 89.5 °F 60.8 °F 38% 29.90 in 10.0 mi North 5.8 mph - N/A   Partly Cloudy
5:54 PM 86.0 °F 86.6 °F 62.6 °F 45% 29.89 in 10.0 mi NNW 8.1 mph - N/A Rain Light Rain
6:54 PM 82.0 °F 83.4 °F 64.0 °F 54% 29.88 in 10.0 mi North 10.4 mph - 0.00 in   Clear
7:54 PM 81.0 °F 82.7 °F 64.9 °F 58% 29.88 in 10.0 mi Calm Calm - N/A   Clear
8:54 PM 80.1 °F 81.5 °F 63.0 °F 56% 29.90 in 10.0 mi East 4.6 mph - N/A   Clear
9:54 PM 77.0 °F - 63.0 °F 62% 29.91 in 10.0 mi NNE 5.8 mph - N/A   Clear
10:54 PM 75.0 °F - 63.0 °F 66% 29.92 in 10.0 mi NNE 4.6 mph - N/A   Clear
11:54 PM 73.9 °F - 63.0 °F 68% 29.92 in 10.0 mi NE 6.9 mph - N/A   Clear